Location: Unspecified
(0.0000°N, 0.0000°E)
Time: 11:30:45
(UTC+02:00)

USA 116 - Visible Passes

Search period start: 28 August 2015 00:00
Search period end: 07 September 2015 00:00
Orbit: 405 x 834 km, 97.9° (Epoch: 18 November)

Date Brightness Start Highest point End Pass type
(mag) Time Alt. Az. Time Alt. Az. Time Alt. Az.
28 Aug 5.3 06:59:30 10° SSW 07:04:47 12° NW 07:05:10 10° NW visible
29 Aug 5.5 07:14:34 10° SW 07:19:29 - NW 07:14:41 11° SW visible
30 Aug6.605:57:08NE05:57:08NE05:52:09SEvisible
31 Aug 6.1 06:11:43 12° NNE 06:11:43 12° NNE 06:12:02 10° NNE visible
01 Sep 5.7 06:20:39 10° SSE 06:26:14 13° N 06:26:41 10° N visible
02 Sep 5.3 06:34:48 10° S 06:40:42 13° NNW 06:41:03 10° NNW visible
03 Sep 4.9 06:49:13 10° S 06:55:07 10° NNW 06:55:09 10° NNW visible
04 Sep 4.9 07:03:56 10° SSW 07:09:28 - NW 07:04:59 16° SW visible
05 Sep 5.2 07:19:12 10° SW 07:23:45 - NW 07:19:44 12° WSW visible
06 Sep 6.4 05:57:16 10° ESE 06:00:57 11° NE 06:01:12 10° NE visible
